• In Denmark
  • List of Countries
  • For 7 days
  • Water Temperature
  • Satellite Maps
  • Weather Map
  • Weather Widgets
  • user-avatar
    Login

    Hourly Weather Ganja

    Today, 23 August, Wednesday

    Time Temperature Precipitation Wind Pressure Humidity
    00:00 +27°C° 0 mm 4 mps 722 mmHg 47%
    01:00 +27°C° 0 mm 3 mps 722 mmHg 48%
    02:00 +26°C° 0 mm 2 mps 722 mmHg 49%
    03:00 +26°C° 0 mm 2 mps 722 mmHg 51%
    04:00 +25°C° 0 mm 2 mps 723 mmHg 51%
    05:00 +25°C° 0 mm 1 mps 723 mmHg 51%
    06:00 +25°C° 0 mm 1 mps 723 mmHg 51%
    07:00 +27°C° 0 mm 1 mps 723 mmHg 45%
    08:00 +29°C° 0 mm 2 mps 723 mmHg 38%
    09:00 +31°C° 0 mm 2 mps 723 mmHg 32%
    10:00 +33°C° 0 mm 3 mps 723 mmHg 28%
    11:00 +35°C° 0 mm 4 mps 723 mmHg 25%
    12:00 +36°C° 0 mm 5 mps 723 mmHg 22%
    13:00 +37°C° 0 mm 5 mps 723 mmHg 21%
    14:00 +37°C° 0 mm 5 mps 723 mmHg 21%
    15:00 +39°C° 0 mm 6 mps 722 mmHg 20%
    16:00 +38°C° 0 mm 6 mps 723 mmHg 23%
    17:00 +36°C° 0 mm 5 mps 723 mmHg 25%
    18:00 +35°C° 0 mm 5 mps 723 mmHg 28%
    19:00 +33°C° 0 mm 5 mps 723 mmHg 31%
    20:00 +30°C° 0 mm 4 mps 724 mmHg 33%
    21:00 +28°C° 0 mm 3 mps 724 mmHg 36%
    22:00 +27°C° 0 mm 2 mps 724 mmHg 38%
    23:00 +27°C° 0 mm 2 mps 725 mmHg 40%

    Tomorrow, 24 August, Thursday

    Time Temperature Precipitation Wind Pressure Humidity
    00:00 +26°C° 0 mm 1 mps 725 mmHg 41%
    01:00 +26°C° 0 mm 1 mps 725 mmHg 42%
    02:00 +25°C° 0 mm 1 mps 725 mmHg 43%
    03:00 +25°C° 0 mm 1 mps 725 mmHg 44%
    04:00 +25°C° 0 mm 2 mps 725 mmHg 44%
    05:00 +25°C° 0 mm 2 mps 726 mmHg 45%
    06:00 +25°C° 0 mm 2 mps 726 mmHg 46%
    07:00 +27°C° 0 mm 2 mps 726 mmHg 40%
    08:00 +29°C° 0 mm 2 mps 726 mmHg 35%
    09:00 +31°C° 0 mm 2 mps 726 mmHg 29%
    10:00 +33°C° 0 mm 3 mps 726 mmHg 26%
    11:00 +35°C° 0 mm 4 mps 726 mmHg 23%
    12:00 +36°C° 0 mm 5 mps 726 mmHg 20%
    13:00 +38°C° 0 mm 6 mps 725 mmHg 20%
    14:00 +38°C° 0 mm 6 mps 725 mmHg 19%
    15:00 +39°C° 0 mm 7 mps 725 mmHg 19%
    16:00 +38°C° 0 mm 6 mps 725 mmHg 21%
    17:00 +36°C° 0 mm 6 mps 725 mmHg 23%
    18:00 +35°C° 0 mm 5 mps 725 mmHg 25%
    19:00 +33°C° 0 mm 5 mps 725 mmHg 28%
    20:00 +30°C° 0 mm 5 mps 726 mmHg 30%
    21:00 +28°C° 0 mm 5 mps 726 mmHg 32%
    22:00 +28°C° 0 mm 4 mps 726 mmHg 34%
    23:00 +27°C° 0 mm 3 mps 727 mmHg 35%

    Day after tomorrow, 25 August, Friday

    Time Temperature Precipitation Wind Pressure Humidity
    00:00 +26°C° 0 mm 3 mps 727 mmHg 36%
    01:00 +25°C° 0 mm 2 mps 727 mmHg 37%
    02:00 +24°C° 0 mm 2 mps 727 mmHg 38%
    03:00 +24°C° 0 mm 1 mps 727 mmHg 40%
    04:00 +24°C° 0 mm 1 mps 727 mmHg 39%
    05:00 +24°C° 0 mm 1 mps 727 mmHg 39%
    06:00 +24°C° 0 mm 1 mps 727 mmHg 39%
    07:00 +26°C° 0 mm 2 mps 727 mmHg 34%
    08:00 +28°C° 0 mm 2 mps 727 mmHg 30%
    09:00 +30°C° 0 mm 2 mps 727 mmHg 25%
    10:00 +31°C° 0 mm 2 mps 727 mmHg 23%
    11:00 +34°C° 0 mm 3 mps 727 mmHg 20%
    12:00 +35°C° 0 mm 3 mps 726 mmHg 18%
    13:00 +36°C° 0 mm 4 mps 726 mmHg 17%
    14:00 +36°C° 0 mm 5 mps 726 mmHg 16%
    15:00 +37°C° 0 mm 5 mps 725 mmHg 15%
    16:00 +36°C° 0 mm 5 mps 725 mmHg 17%
    17:00 +35°C° 0 mm 4 mps 726 mmHg 19%
    18:00 +34°C° 0 mm 4 mps 726 mmHg 20%
    19:00 +32°C° 0 mm 4 mps 726 mmHg 23%
    20:00 +30°C° 0 mm 4 mps 727 mmHg 25%
    21:00 +28°C° 0 mm 4 mps 727 mmHg 27%
    22:00 +27°C° 0 mm 4 mps 727 mmHg 29%
    23:00 +26°C° 0 mm 3 mps 727 mmHg 31%

    26 August, Saturday

    Time Temperature Precipitation Wind Pressure Humidity
    00:00 +25°C° 0 mm 3 mps 727 mmHg 34%
    01:00 +25°C° 0 mm 2 mps 727 mmHg 34%
    02:00 +24°C° 0 mm 2 mps 727 mmHg 34%
    03:00 +24°C° 0 mm 2 mps 727 mmHg 35%
    04:00 +23°C° 0 mm 2 mps 727 mmHg 34%
    05:00 +23°C° 0 mm 1 mps 727 mmHg 34%
    06:00 +23°C° 0 mm 1 mps 727 mmHg 33%
    07:00 +25°C° 0 mm 2 mps 727 mmHg 30%
    08:00 +27°C° 0 mm 2 mps 727 mmHg 26%
    09:00 +29°C° 0 mm 2 mps 727 mmHg 23%
    10:00 +31°C° 0 mm 3 mps 727 mmHg 22%
    11:00 +33°C° 0 mm 3 mps 726 mmHg 20%
    12:00 +34°C° 0 mm 4 mps 726 mmHg 18%
    13:00 +35°C° 0 mm 4 mps 726 mmHg 18%
    14:00 +35°C° 0 mm 5 mps 725 mmHg 18%
    15:00 +36°C° 0 mm 5 mps 725 mmHg 18%
    16:00 +35°C° 0 mm 5 mps 725 mmHg 20%
    17:00 +34°C° 0 mm 4 mps 725 mmHg 22%
    18:00 +33°C° 0 mm 4 mps 725 mmHg 24%
    19:00 +30°C° 0 mm 4 mps 726 mmHg 26%
    20:00 +29°C° 0 mm 4 mps 726 mmHg 28%
    21:00 +27°C° 0 mm 4 mps 726 mmHg 30%
    22:00 +26°C° 0 mm 3 mps 726 mmHg 32%
    23:00 +26°C° 0 mm 3 mps 726 mmHg 33%

    27 August, Sunday

    Time Temperature Precipitation Wind Pressure Humidity
    00:00 +25°C° 0 mm 3 mps 726 mmHg 35%
    01:00 +24°C° 0 mm 2 mps 726 mmHg 36%
    02:00 +24°C° 0 mm 2 mps 726 mmHg 37%
    03:00 +23°C° 0 mm 2 mps 726 mmHg 38%
    04:00 +23°C° 0 mm 2 mps 726 mmHg 37%
    05:00 +23°C° 0 mm 1 mps 726 mmHg 37%
    06:00 +23°C° 0 mm 1 mps 726 mmHg 36%
    07:00 +25°C° 0 mm 2 mps 726 mmHg 33%
    08:00 +27°C° 0 mm 2 mps 726 mmHg 29%
    09:00 +29°C° 0 mm 2 mps 726 mmHg 26%
    10:00 +30°C° 0 mm 2 mps 726 mmHg 25%
    11:00 +31°C° 0 mm 3 mps 725 mmHg 23%
    12:00 +34°C° 0 mm 3 mps 725 mmHg 22%
    13:00 +34°C° 0 mm 4 mps 725 mmHg 22%
    14:00 +35°C° 0 mm 4 mps 725 mmHg 21%
    15:00 +36°C° 0 mm 5 mps 724 mmHg 21%
    16:00 +35°C° 0 mm 5 mps 724 mmHg 23%
    17:00 +34°C° 0 mm 5 mps 724 mmHg 26%
    18:00 +33°C° 0 mm 4 mps 724 mmHg 28%
    19:00 +30°C° 0 mm 4 mps 725 mmHg 31%
    20:00 +29°C° 0 mm 4 mps 725 mmHg 34%
    21:00 +27°C° 0 mm 4 mps 726 mmHg 38%
    22:00 +26°C° 0 mm 4 mps 726 mmHg 40%
    23:00 +26°C° 0 mm 4 mps 726 mmHg 42%

    28 August, Monday

    Time Temperature Precipitation Wind Pressure Humidity
    00:00 +25°C° 0 mm 3 mps 726 mmHg 44%
    01:00 +24°C° 0 mm 3 mps 726 mmHg 46%
    02:00 +24°C° 0 mm 2 mps 725 mmHg 47%
    03:00 +23°C° 0 mm 2 mps 725 mmHg 48%
    04:00 +23°C° 0 mm 2 mps 725 mmHg 48%
    05:00 +23°C° 0 mm 2 mps 726 mmHg 47%
    06:00 +23°C° 0 mm 1 mps 726 mmHg 46%
    07:00 +25°C° 0 mm 2 mps 726 mmHg 43%
    08:00 +27°C° 0 mm 2 mps 725 mmHg 39%
    09:00 +28°C° 0 mm 2 mps 725 mmHg 35%
    10:00 +30°C° 0 mm 2 mps 725 mmHg 33%
    11:00 +31°C° 0 mm 3 mps 724 mmHg 30%
    12:00 +33°C° 0 mm 3 mps 724 mmHg 28%
    13:00 +34°C° 0 mm 4 mps 723 mmHg 27%
    14:00 +35°C° 0 mm 4 mps 723 mmHg 26%
    15:00 +35°C° 0 mm 4 mps 723 mmHg 25%
    16:00 +35°C° 0 mm 4 mps 723 mmHg 27%
    17:00 +34°C° 0 mm 4 mps 723 mmHg 29%
    18:00 +33°C° 0 mm 3 mps 723 mmHg 31%
    19:00 +30°C° 0 mm 3 mps 723 mmHg 33%
    20:00 +29°C° 0 mm 3 mps 723 mmHg 36%
    21:00 +27°C° 0 mm 3 mps 724 mmHg 38%
    22:00 +27°C° 0 mm 3 mps 724 mmHg 39%
    23:00 +26°C° 0 mm 3 mps 723 mmHg 40%
    Show more